Time,TemperatureF,DewpointF,PressureIn,WindDirection,WindDirectionDegrees,WindSpeedMPH,WindSpeedGustMPH,Humidity,HourlyPrecipIn,Conditions,Clouds,dailyrainin,SoftwareType,DateUTC
2013-06-16 00:02:00,57.0,50.0,30.00,ENE,57,0.0,0.0,77,0.01,,,0.43,,2013-06-16 04:02:00,
2013-06-16 00:12:00,57.0,50.0,30.00,ENE,57,0.0,0.0,77,0.01,,,0.43,,2013-06-16 04:12:00,
2013-06-16 00:23:00,56.0,50.0,30.00,ENE,57,0.0,0.0,79,0.01,,,0.43,,2013-06-16 04:23:00,
2013-06-16 00:34:00,55.0,50.0,30.00,ENE,57,0.0,0.0,82,0.01,,,0.43,,2013-06-16 04:34:00,
2013-06-16 00:43:00,55.0,50.0,30.00,ENE,57,0.0,0.0,82,0.01,,,0.43,,2013-06-16 04:43:00,
2013-06-16 00:53:00,55.0,50.0,30.00,North,5,0.0,0.0,83,0.00,,,0.41,,2013-06-16 04:53:00,
2013-06-16 01:02:00,55.0,51.0,29.99,North,5,0.0,0.0,86,0.00,,,0.41,,2013-06-16 05:02:00,
2013-06-16 01:12:00,55.0,51.0,29.99,North,5,0.0,0.0,86,0.00,,,0.41,,2013-06-16 05:12:00,
2013-06-16 01:22:00,54.0,50.0,29.99,North,5,0.0,0.0,86,0.01,,,0.42,,2013-06-16 05:22:00,
2013-06-16 01:34:00,54.0,50.0,29.99,North,5,0.0,0.0,87,0.01,,,0.42,,2013-06-16 05:34:00,
2013-06-16 01:43:00,54.0,50.0,29.99,North,5,0.0,0.0,87,0.01,,,0.42,,2013-06-16 05:43:00,
2013-06-16 01:52:00,53.0,49.0,29.99,North,5,0.0,0.0,87,0.01,,,0.41,,2013-06-16 05:52:00,
2013-06-16 02:01:00,53.0,50.0,30.00,North,5,0.0,0.0,89,0.01,,,0.41,,2013-06-16 06:01:00,
2013-06-16 02:12:00,53.0,50.0,30.00,North,5,0.0,0.0,89,0.01,,,0.41,,2013-06-16 06:12:00,
2013-06-16 02:23:00,53.0,50.0,29.99,North,5,0.0,0.0,89,0.01,,,0.42,,2013-06-16 06:23:00,
2013-06-16 02:33:00,53.0,50.0,30.00,North,5,0.0,0.0,88,0.01,,,0.42,,2013-06-16 06:33:00,
2013-06-16 02:43:00,53.0,50.0,30.00,North,5,0.0,0.0,88,0.01,,,0.42,,2013-06-16 06:43:00,
2013-06-16 02:52:00,53.0,49.0,30.00,North,5,0.0,0.0,86,0.01,,,0.40,,2013-06-16 06:52:00,
2013-06-16 03:01:00,53.0,49.0,30.00,North,5,0.0,0.0,85,0.01,,,0.40,,2013-06-16 07:01:00,
2013-06-16 03:12:00,53.0,49.0,30.00,North,5,0.0,0.0,85,0.01,,,0.40,,2013-06-16 07:12:00,
2013-06-16 03:23:00,53.0,49.0,30.00,North,5,0.0,0.0,87,0.00,,,0.40,,2013-06-16 07:23:00,
2013-06-16 03:33:00,52.0,48.0,29.99,North,5,0.0,0.0,85,0.00,,,0.40,,2013-06-16 07:33:00,
2013-06-16 03:43:00,52.0,48.0,29.99,North,5,0.0,0.0,85,0.00,,,0.40,,2013-06-16 07:43:00,
2013-06-16 03:53:00,52.0,48.0,29.99,North,5,0.0,0.0,85,0.01,,,0.40,,2013-06-16 07:53:00,
2013-06-16 04:02:00,52.0,48.0,29.99,North,5,0.0,0.0,87,0.01,,,0.40,,2013-06-16 08:02:00,
2013-06-16 04:12:00,52.0,48.0,29.99,North,5,0.0,0.0,87,0.01,,,0.40,,2013-06-16 08:12:00,
2013-06-16 04:22:00,52.0,48.0,29.99,North,5,0.0,0.0,85,0.01,,,0.40,,2013-06-16 08:22:00,
2013-06-16 04:33:00,51.0,47.0,29.98,North,5,0.0,0.0,85,0.02,,,0.41,,2013-06-16 08:33:00,
2013-06-16 04:43:00,51.0,47.0,29.98,North,5,0.0,0.0,85,0.02,,,0.41,,2013-06-16 08:43:00,
2013-06-16 04:54:00,52.0,47.0,29.98,North,5,0.0,0.0,84,0.01,,,0.40,,2013-06-16 08:54:00,
2013-06-16 05:02:00,52.0,47.0,29.98,North,5,0.0,0.0,84,0.01,,,0.40,,2013-06-16 09:02:00,
2013-06-16 05:11:00,52.0,47.0,29.98,North,5,0.0,0.0,84,0.01,,,0.40,,2013-06-16 09:11:00,
2013-06-16 05:22:00,51.0,48.0,29.99,North,5,0.0,0.0,88,0.01,,,0.40,,2013-06-16 09:22:00,
2013-06-16 05:33:00,51.0,48.0,29.99,North,5,0.0,0.0,89,0.00,,,0.40,,2013-06-16 09:33:00,
2013-06-16 05:43:00,51.0,48.0,29.99,North,5,0.0,0.0,89,0.00,,,0.40,,2013-06-16 09:43:00,
2013-06-16 05:52:00,50.0,47.0,29.99,North,5,0.0,0.0,90,0.01,,,0.39,,2013-06-16 09:52:00,
2013-06-16 06:02:00,50.0,47.0,30.00,North,5,0.0,0.0,91,0.01,,,0.39,,2013-06-16 10:02:00,
2013-06-16 06:12:00,50.0,47.0,30.00,North,5,0.0,0.0,91,0.01,,,0.39,,2013-06-16 10:12:00,
2013-06-16 06:22:00,50.0,48.0,29.99,North,5,0.0,0.0,92,0.01,,,0.39,,2013-06-16 10:22:00,
2013-06-16 06:33:00,50.0,48.0,30.00,North,5,0.0,0.0,93,0.02,,,0.40,,2013-06-16 10:33:00,
2013-06-16 06:43:00,50.0,48.0,30.00,North,5,0.0,0.0,93,0.02,,,0.40,,2013-06-16 10:43:00,
2013-06-16 06:54:00,51.0,48.0,29.99,North,5,0.0,0.0,91,0.01,,,0.39,,2013-06-16 10:54:00,
2013-06-16 07:02:00,52.0,49.0,29.99,North,5,0.0,0.0,91,0.01,,,0.39,,2013-06-16 11:02:00,
2013-06-16 07:12:00,52.0,49.0,29.99,North,5,0.0,0.0,91,0.01,,,0.39,,2013-06-16 11:12:00,
2013-06-16 07:22:00,53.0,51.0,29.99,North,5,0.0,0.0,92,0.01,,,0.39,,2013-06-16 11:22:00,
2013-06-16 07:34:00,54.0,52.0,30.00,North,5,0.0,0.0,92,0.00,,,0.39,,2013-06-16 11:34:00,
2013-06-16 07:43:00,54.0,52.0,30.00,North,5,0.0,0.0,92,0.00,,,0.39,,2013-06-16 11:43:00,
2013-06-16 07:53:00,55.0,52.0,30.00,North,5,0.0,0.0,90,0.00,,,0.38,,2013-06-16 11:53:00,
2013-06-16 08:02:00,56.0,52.0,30.00,North,5,0.0,0.0,88,0.01,,,0.39,,2013-06-16 12:02:00,
2013-06-16 08:12:00,56.0,52.0,30.00,North,5,0.0,0.0,88,0.01,,,0.39,,2013-06-16 12:12:00,
2013-06-16 08:22:00,57.0,53.0,29.99,North,5,0.0,0.0,88,0.01,,,0.39,,2013-06-16 12:22:00,
2013-06-16 08:33:00,58.0,54.0,29.99,North,5,0.0,0.0,87,0.01,,,0.39,,2013-06-16 12:33:00,
2013-06-16 08:43:00,58.0,54.0,29.99,North,5,0.0,0.0,87,0.01,,,0.39,,2013-06-16 12:43:00,
2013-06-16 08:53:00,60.0,54.0,29.99,North,5,0.0,0.0,82,0.01,,,0.38,,2013-06-16 12:53:00,
2013-06-16 09:01:00,62.0,56.0,29.98,North,5,0.0,0.0,80,0.00,,,0.38,,2013-06-16 13:01:00,
2013-06-16 09:12:00,62.0,56.0,29.98,North,5,0.0,0.0,80,0.00,,,0.38,,2013-06-16 13:12:00,
2013-06-16 09:22:00,64.0,57.0,29.99,North,5,0.0,0.0,79,0.01,,,0.39,,2013-06-16 13:22:00,
2013-06-16 09:34:00,65.0,58.0,29.99,North,5,0.0,0.0,78,0.01,,,0.39,,2013-06-16 13:34:00,
2013-06-16 09:43:00,65.0,58.0,29.99,North,5,0.0,0.0,78,0.01,,,0.39,,2013-06-16 13:43:00,
2013-06-16 09:54:00,65.0,58.0,29.98,ENE,57,0.0,0.0,77,0.01,,,0.37,,2013-06-16 13:54:00,
2013-06-16 10:02:00,66.0,59.0,29.97,NE,51,0.0,0.0,78,0.01,,,0.37,,2013-06-16 14:02:00,
2013-06-16 10:12:00,66.0,59.0,29.97,NE,51,0.0,0.0,78,0.01,,,0.37,,2013-06-16 14:12:00,
2013-06-16 10:22:00,67.0,58.0,29.97,NE,51,0.0,0.0,74,0.01,,,0.38,,2013-06-16 14:22:00,
2013-06-16 10:34:00,69.0,60.0,29.96,NE,51,0.0,0.0,73,0.01,,,0.38,,2013-06-16 14:34:00,
2013-06-16 10:43:00,69.0,60.0,29.96,NE,51,0.0,0.0,73,0.01,,,0.38,,2013-06-16 14:43:00,
2013-06-16 10:53:00,70.0,60.0,29.96,NNE,28,0.0,0.0,70,0.01,,,0.36,,2013-06-16 14:53:00,
2013-06-16 11:02:00,69.0,58.0,29.96,SE,137,0.0,0.0,68,0.02,,,0.37,,2013-06-16 15:02:00,
2013-06-16 11:12:00,69.0,58.0,29.96,SE,137,0.0,0.0,68,0.02,,,0.37,,2013-06-16 15:12:00,
2013-06-16 11:23:00,69.0,60.0,29.95,NNW,340,0.0,0.0,73,0.01,,,0.37,,2013-06-16 15:23:00,
2013-06-16 11:34:00,69.0,60.0,29.95,NNW,340,0.0,0.0,72,0.01,,,0.37,,2013-06-16 15:34:00,
2013-06-16 11:43:00,69.0,60.0,29.95,NNW,340,0.0,0.0,72,0.01,,,0.37,,2013-06-16 15:43:00,
2013-06-16 11:53:00,69.0,60.0,29.93,NE,47,0.0,0.0,74,0.02,,,0.35,,2013-06-16 15:53:00,
2013-06-16 12:02:00,69.0,58.0,29.93,ESE,123,0.0,0.0,68,0.01,,,0.35,,2013-06-16 16:02:00,
2013-06-16 12:12:00,69.0,58.0,29.93,ESE,123,0.0,0.0,68,0.01,,,0.35,,2013-06-16 16:12:00,
2013-06-16 12:23:00,71.0,59.0,29.92,ENE,59,0.0,0.0,67,0.02,,,0.36,,2013-06-16 16:23:00,
2013-06-16 12:33:00,72.0,59.0,29.92,South,186,0.0,0.0,63,0.02,,,0.36,,2013-06-16 16:33:00,
2013-06-16 12:43:00,72.0,59.0,29.92,South,186,0.0,0.0,63,0.02,,,0.36,,2013-06-16 16:43:00,
2013-06-16 12:53:00,72.0,60.0,29.91,WSW,252,0.0,0.0,65,0.02,,,0.32,,2013-06-16 16:53:00,
2013-06-16 13:02:00,73.0,59.0,29.91,NNW,333,0.0,0.0,61,0.02,,,0.32,,2013-06-16 17:02:00,
2013-06-16 13:12:00,73.0,59.0,29.91,NNW,333,0.0,0.0,61,0.02,,,0.32,,2013-06-16 17:12:00,
2013-06-16 13:22:00,72.0,60.0,29.90,ENE,57,0.0,0.0,65,0.02,,,0.33,,2013-06-16 17:22:00,
2013-06-16 13:34:00,70.0,58.0,29.90,East,81,0.0,0.0,66,0.02,,,0.33,,2013-06-16 17:34:00,
2013-06-16 13:43:00,70.0,58.0,29.90,East,81,0.0,0.0,66,0.02,,,0.33,,2013-06-16 17:43:00,
2013-06-16 13:53:00,69.0,57.0,29.89,SE,134,0.0,0.0,66,0.01,,,0.28,,2013-06-16 17:53:00,
2013-06-16 14:02:00,69.0,59.0,29.88,SE,125,0.0,0.0,70,0.02,,,0.30,,2013-06-16 18:02:00,
2013-06-16 14:12:00,69.0,59.0,29.88,SE,125,0.0,0.0,70,0.02,,,0.30,,2013-06-16 18:12:00,
2013-06-16 14:22:00,69.0,57.0,29.87,SE,130,0.0,0.0,65,0.01,,,0.30,,2013-06-16 18:22:00,
2013-06-16 14:34:00,70.0,61.0,29.85,West,277,0.0,0.0,72,0.02,,,0.31,,2013-06-16 18:34:00,
2013-06-16 14:43:00,70.0,61.0,29.85,West,277,0.0,0.0,72,0.02,,,0.31,,2013-06-16 18:43:00,
2013-06-16 14:52:00,70.0,58.0,29.85,SSE,157,0.0,0.0,66,0.02,,,0.28,,2013-06-16 18:52:00,
2013-06-16 15:01:00,69.0,59.0,29.85,West,275,0.0,0.0,70,0.01,,,0.28,,2013-06-16 19:01:00,
2013-06-16 15:12:00,69.0,59.0,29.85,West,275,0.0,0.0,70,0.01,,,0.28,,2013-06-16 19:12:00,
2013-06-16 15:22:00,68.0,58.0,29.84,SSE,147,0.0,0.0,70,0.02,,,0.30,,2013-06-16 19:22:00,
2013-06-16 15:34:00,68.0,58.0,29.83,SE,139,0.0,0.0,70,0.01,,,0.30,,2013-06-16 19:34:00,
2013-06-16 15:43:00,68.0,58.0,29.83,SE,139,0.0,0.0,70,0.01,,,0.30,,2013-06-16 19:43:00,
2013-06-16 15:54:00,68.0,58.0,29.83,SE,139,0.0,0.0,71,0.02,,,0.28,,2013-06-16 19:54:00,
2013-06-16 16:02:00,68.0,57.0,29.82,ENE,63,0.0,0.0,69,0.02,,,0.28,,2013-06-16 20:02:00,
2013-06-16 16:12:00,68.0,57.0,29.82,ENE,63,0.0,0.0,69,0.02,,,0.28,,2013-06-16 20:12:00,
2013-06-16 16:22:00,69.0,58.0,29.82,SSE,159,0.0,0.0,68,0.01,,,0.28,,2013-06-16 20:22:00,
2013-06-16 16:33:00,68.0,59.0,29.81,SSE,147,0.0,0.0,74,0.02,,,0.28,,2013-06-16 20:33:00,
2013-06-16 16:42:00,68.0,59.0,29.81,SSE,147,0.0,0.0,74,0.02,,,0.28,,2013-06-16 20:42:00,
2013-06-16 16:53:00,68.0,59.0,29.80,SSE,157,0.0,0.0,74,0.01,,,0.27,,2013-06-16 20:53:00,
2013-06-16 17:02:00,69.0,61.0,29.80,SW,219,0.0,0.0,75,0.01,,,0.27,,2013-06-16 21:02:00,
2013-06-16 17:11:00,69.0,61.0,29.80,SW,219,0.0,0.0,75,0.01,,,0.27,,2013-06-16 21:11:00,
2013-06-16 17:22:00,69.0,62.0,29.80,SW,219,0.0,0.0,78,0.02,,,0.28,,2013-06-16 21:22:00,
2013-06-16 17:33:00,68.0,62.0,29.79,NW,309,0.0,0.0,80,0.01,,,0.28,,2013-06-16 21:33:00,
2013-06-16 17:42:00,68.0,62.0,29.79,NW,309,0.0,0.0,80,0.01,,,0.28,,2013-06-16 21:42:00,
2013-06-16 17:53:00,69.0,62.0,29.78,NNE,14,0.0,0.0,79,0.01,,,0.27,,2013-06-16 21:53:00,
2013-06-16 18:01:00,70.0,63.0,29.78,SE,131,0.0,0.0,78,0.02,,,0.28,,2013-06-16 22:01:00,
2013-06-16 18:12:00,70.0,63.0,29.78,SE,131,0.0,0.0,78,0.02,,,0.28,,2013-06-16 22:12:00,
2013-06-16 18:22:00,70.0,63.0,29.78,SW,225,0.0,0.0,78,0.01,,,0.28,,2013-06-16 22:22:00,
2013-06-16 18:32:00,70.0,63.0,29.78,ESE,121,0.0,0.0,79,0.01,,,0.28,,2013-06-16 22:32:00,
2013-06-16 18:42:00,70.0,63.0,29.78,ESE,121,0.0,0.0,79,0.01,,,0.28,,2013-06-16 22:42:00,
2013-06-16 18:52:00,70.0,63.0,29.78,ESE,116,0.0,0.0,79,0.02,,,0.28,,2013-06-16 22:52:00,
2013-06-16 19:02:00,69.0,63.0,29.78,NE,36,0.0,0.0,81,0.01,,,0.28,,2013-06-16 23:02:00,
2013-06-16 19:11:00,69.0,63.0,29.78,NE,36,0.0,0.0,81,0.01,,,0.28,,2013-06-16 23:11:00,
2013-06-16 19:22:00,69.0,63.0,29.78,NE,39,0.0,0.0,81,0.01,,,0.28,,2013-06-16 23:22:00,
2013-06-16 19:32:00,68.0,63.0,29.78,WNW,284,0.0,0.0,83,0.02,,,0.28,,2013-06-16 23:32:00,
2013-06-16 19:42:00,68.0,63.0,29.78,WNW,284,0.0,0.0,83,0.02,,,0.28,,2013-06-16 23:42:00,
2013-06-16 19:52:00,68.0,63.0,29.78,WNW,286,0.0,0.0,84,0.01,,,0.28,,2013-06-16 23:52:00,
2013-06-16 20:02:00,68.0,63.0,29.78,SE,134,0.0,0.0,85,0.01,,,0.28,,2013-06-17 00:02:00,
2013-06-16 20:12:00,68.0,63.0,29.78,SE,134,0.0,0.0,85,0.01,,,0.28,,2013-06-17 00:12:00,
2013-06-16 20:22:00,68.0,63.0,29.79,SE,135,0.0,0.0,85,0.02,,,0.28,,2013-06-17 00:22:00,
2013-06-16 20:32:00,68.0,64.0,29.79,SE,135,0.0,0.0,86,0.01,,,0.28,,2013-06-17 00:32:00,
2013-06-16 20:43:00,68.0,64.0,29.79,SE,135,0.0,0.0,86,0.01,,,0.28,,2013-06-17 00:43:00,
2013-06-16 20:53:00,67.0,63.0,29.79,SE,135,0.0,0.0,87,0.01,,,0.28,,2013-06-17 00:53:00,
2013-06-16 21:02:00,67.0,63.0,29.79,SE,135,0.0,0.0,88,0.01,,,0.28,,2013-06-17 01:02:00,
2013-06-16 21:12:00,67.0,63.0,29.79,SE,135,0.0,0.0,88,0.01,,,0.28,,2013-06-17 01:12:00,
2013-06-16 21:22:00,67.0,64.0,29.80,SE,135,0.0,0.0,89,0.01,,,0.28,,2013-06-17 01:22:00,
2013-06-16 21:32:00,67.0,64.0,29.80,SE,135,0.0,0.0,89,0.01,,,0.28,,2013-06-17 01:32:00,
2013-06-16 21:43:00,67.0,64.0,29.80,SE,135,0.0,0.0,89,0.01,,,0.28,,2013-06-17 01:43:00,
2013-06-16 21:53:00,67.0,64.0,29.80,SE,135,0.0,0.0,90,0.01,,,0.28,,2013-06-17 01:53:00,
2013-06-16 22:03:00,66.0,63.0,29.81,SE,135,0.0,0.0,91,0.02,,,0.28,,2013-06-17 02:03:00,
2013-06-16 22:12:00,66.0,63.0,29.81,SE,135,0.0,0.0,91,0.02,,,0.28,,2013-06-17 02:12:00,
2013-06-16 22:22:00,66.0,63.0,29.81,SE,135,0.0,0.0,91,0.01,,,0.28,,2013-06-17 02:22:00,
2013-06-16 22:34:00,66.0,63.0,29.82,SE,135,0.0,0.0,91,0.01,,,0.28,,2013-06-17 02:34:00,
2013-06-16 22:43:00,66.0,63.0,29.82,SE,135,0.0,0.0,91,0.01,,,0.28,,2013-06-17 02:43:00,
2013-06-16 22:53:00,65.0,63.0,29.82,SE,135,0.0,0.0,92,0.01,,,0.28,,2013-06-17 02:53:00,
2013-06-16 23:02:00,64.0,62.0,29.83,SE,134,0.0,0.0,93,0.01,,,0.28,,2013-06-17 03:02:00,
2013-06-16 23:12:00,64.0,62.0,29.83,SE,134,0.0,0.0,93,0.01,,,0.28,,2013-06-17 03:12:00,
2013-06-16 23:22:00,65.0,63.0,29.83,SE,135,0.0,0.0,92,0.01,,,0.28,,2013-06-17 03:22:00,
2013-06-16 23:33:00,65.0,62.0,29.84,East,89,0.0,0.0,91,0.02,,,0.30,,2013-06-17 03:33:00,
2013-06-16 23:44:00,65.0,62.0,29.84,East,89,0.0,0.0,91,0.02,,,0.30,,2013-06-17 03:44:00,
2013-06-16 23:54:00,66.0,62.0,29.84,East,89,0.0,0.0,88,0.02,,,0.28,,2013-06-17 03:54:00,